FW7539 Weather Reports


time (UTC)temp
F
wind
direction
speed
knots
gust
knots
rain 1hr
in
rain 24hr
in
rain mn
in
humidity
%
barometer
mb
20260505111524 57 133 0.0 2.6 0.01 0.17 0.17 89 1008.4
20260505111003 57 155 0.9 2.6 0.03 0.17 0.17 89 1008.1
20260505110503 57 189 0.9 2.6 0.06 0.17 0.17 89 1007.8
20260505102004 58 250 0.0 1.7 0.15 0.16 0.16 88 1009.2
20260505101503 58 259 0.0 1.7 0.14 0.15 0.16 88 1009.3
20260505101003 58 279 0.0 1.7 0.14 0.14 0.14 88 1009.4
20260505100503 58 266 0.9 3.5 0.10 0.10 0.10 87 1009.5
20260505100003 58 259 1.7 4.3 0.08 0.08 0.08 87 1009.6
20260505095503 58 274 1.7 4.3 0.06 0.06 0.06 86 1009.6
20260505095003 59 293 0.9 3.5 0.05 0.05 0.05 85 1009.6
20260505094503 59 287 0.9 3.5 0.04 0.04 0.04 84 1009.8
20260505094003 60 303 1.7 3.5 0.04 0.04 0.04 83 1009.6
20260505093503 60 328 1.7 7.8 0.03 0.03 0.03 82 1009.4
20260505093004 60 293 1.7 7.8 0.02 0.02 0.02 80 1009.3
20260505092503 61 269 0.9 3.5 0.02 0.02 0.02 78 1009.2
20260505092004 62 290 0.9 3.5 0.01 0.01 0.01 76 1008.7
20260505091524 63 289 1.7 5.2 0.01 0.01 0.01 74 1008.5
20260505091003 64 262 0.9 5.2 0.00 0.00 0.00 69 1008.5
20260505090524 64 257 0.9 2.6 0.00 0.00 0.00 65 1008.4
20260505090003 64 260 0.0 2.6 0.00 0.00 0.00 64 1008.0
20260505085502 64 251 0.0 0.9 0.00 0.00 0.00 64 1007.9
20260505085003 64 251 0.0 1.7 0.00 0.00 0.00 64 1007.8
20260505084524 64 244 0.9 4.3 0.00 0.00 0.00 64 1007.7
20260505084003 64 239 0.9 4.3 0.00 0.00 0.00 63 1007.7
20260505083503 64 249 0.0 3.5 0.00 0.00 0.00 63 1007.6
20260505083003 64 262 0.0 1.7 0.00 0.00 0.00 63 1007.5
20260505082503 64 218 0.9 1.7 0.00 0.00 0.00 63 1007.4
20260505082004 64 196 0.9 1.7 0.00 0.00 0.00 62 1007.3
20260505081503 65 190 0.0 1.7 0.00 0.00 0.00 63 1007.2
20260505081003 65 180 0.0 2.6 0.00 0.00 0.00 62 1007.1
20260505080503 65 191 0.9 3.5 0.00 0.00 0.00 62 1007.0
20260505080003 65 232 0.9 3.5 0.00 0.00 0.00 61 1007.1
20260505075503 65 237 0.0 3.5 0.00 0.00 0.00 61 1007.2
20260505075004 65 229 0.0 2.6 0.00 0.00 0.00 61 1007.2
20260505074504 66 234 0.9 3.5 0.00 0.00 0.00 60 1007.4
20260505074003 66 235 0.9 4.3 0.00 0.00 0.00 60 1007.3
20260505073503 66 242 0.9 4.3 0.00 0.00 0.00 60 1007.2
20260505073003 66 234 0.9 4.3 0.00 0.00 0.00 59 1007.1
20260505072524 66 204 0.9 4.3 0.00 0.00 0.00 59 1007.0
20260505072003 66 209 1.7 7.0 0.00 0.00 0.00 59 1006.8
20260505071524 66 228 1.7 7.0 0.00 0.00 0.00 58 1006.7
20260505071003 66 211 1.7 8.7 0.00 0.00 0.00 59 1006.7
20260505070503 67 217 2.6 9.6 0.00 0.00 0.00 59 1006.7
20260505070003 67 235 1.7 9.6 0.00 0.00 0.00 59 1006.7
20260505065503 67 177 1.7 8.7 0.00 0.00 0.00 58 1006.8
20260505065003 67 157 2.6 9.6 0.00 0.00 0.00 58 1006.6
20260505064504 67 169 2.6 9.6 0.00 0.00 0.00 58 1006.7
20260505064003 67 174 2.6 11.3 0.00 0.00 0.00 57 1006.7
20260505063504 67 169 2.6 11.3 0.00 0.00 0.00 57 1006.8
20260505063004 67 164 2.6 9.6 0.00 0.00 0.00 57 1006.7
20260505062503 67 163 2.6 8.7 0.00 0.00 0.00 57 1006.7
20260505062003 67 155 2.6 8.7 0.00 0.00 0.00 57 1006.7
20260505061524 67 156 2.6 7.8 0.00 0.00 0.00 57 1006.7
20260505061004 67 161 2.6 7.8 0.00 0.00 0.00 57 1006.8
20260505060503 67 157 2.6 7.0 0.00 0.00 0.00 57 1006.6
20260505060026 67 159 2.6 7.8 0.00 0.00 0.00 57 1006.6
20260505055503 67 184 2.6 8.7 0.00 0.00 0.00 57 1006.5
20260505055024 68 173 2.6 9.6 0.00 0.00 0.00 57 1006.3
20260505054504 68 153 2.6 9.6 0.00 0.00 0.00 57 1006.3
20260505054024 68 159 1.7 7.8 0.00 0.00 0.00 57 1006.1
20260505053503 68 156 2.6 10.4 0.00 0.00 0.00 56 1006.1
20260505053003 68 157 3.5 10.4 0.00 0.00 0.00 55 1006.0
20260505052503 68 161 2.6 8.7 0.00 0.00 0.00 55 1006.0
20260505052003 68 166 2.6 7.8 0.00 0.00 0.00 55 1006.0
20260505051503 69 174 2.6 9.6 0.00 0.00 0.00 55 1006.0
20260505051003 69 181 2.6 10.4 0.00 0.00 0.00 55 1006.0
20260505050524 69 174 1.7 10.4 0.00 0.00 0.00 55 1006.1
20260505041503 69 174 2.6 11.3 0.00 0.00 0.00 55 1006.7
20260505041025 69 161 2.6 11.3 0.00 0.00 0.00 56 1006.6
20260505040503 69 166 2.6 7.8 0.00 0.00 0.00 56 1006.8
20260505040004 69 161 2.6 8.7 0.00 0.00 0.00 56 1006.8
20260505035503 69 155 1.7 8.7 0.00 0.00 0.00 56 1006.9
20260505035004 69 183 1.7 8.7 0.00 0.00 0.00 56 1006.9
20260505034504 69 189 2.6 8.7 0.00 0.00 0.00 56 1006.9
20260505034003 69 172 2.6 7.0 0.00 0.00 0.00 57 1006.9
20260505033504 69 180 2.6 9.6 0.00 0.00 0.00 57 1006.8
20260505033004 69 169 2.6 9.6 0.00 0.00 0.00 57 1006.9
20260505032505 69 146 1.7 5.2 0.00 0.00 0.00 57 1006.8
20260505032004 69 155 1.7 4.3 0.00 0.00 0.00 57 1006.8
20260505031504 69 157 1.7 6.1 0.00 0.00 0.00 57 1006.8
20260505031003 69 162 1.7 6.1 0.00 0.00 0.00 57 1006.8
20260505030501 69 157 1.7 4.3 0.00 0.00 0.00 57 1006.8
20260505030001 69 156 1.7 5.2 0.00 0.00 0.00 58 1006.7
20260505025501 69 154 1.7 7.8 0.00 0.00 0.00 57 1006.7
20260505025001 69 155 1.7 7.8 0.00 0.00 0.00 57 1006.6
20260505024501 69 164 1.7 6.1 0.00 0.00 0.00 57 1006.5
20260505024023 69 160 1.7 6.1 0.00 0.00 0.00 57 1006.5
20260505023522 70 139 1.7 7.0 0.00 0.00 0.00 57 1006.4
20260505023001 70 138 1.7 7.0 0.00 0.00 0.00 57 1006.4
20260505022502 69 143 1.7 4.3 0.00 0.00 0.00 57 1006.4
20260505022001 69 144 1.7 6.1 0.00 0.00 0.00 57 1006.3
20260505021501 69 146 1.7 6.1 0.00 0.00 0.00 58 1006.3
20260505021023 69 142 1.7 5.2 0.00 0.00 0.00 58 1006.1
20260505020523 69 145 0.9 3.5 0.00 0.00 0.00 58 1006.0
20260505020001 69 150 0.9 5.2 0.00 0.00 0.00 58 1006.0
20260505015502 69 144 0.9 5.2 0.00 0.00 0.00 59 1005.9
20260505015001 69 139 0.9 2.6 0.00 0.00 0.00 59 1005.9
20260505014522 69 136 0.9 2.6 0.00 0.00 0.00 58 1005.8
20260505014022 70 136 0.9 3.5 0.00 0.00 0.00 57 1005.8
20260505013501 70 149 0.9 3.5 0.00 0.00 0.00 57 1005.7
20260505013002 70 148 0.9 2.6 0.00 0.00 0.00 57 1005.7
20260505012522 70 134 0.9 2.6 0.00 0.00 0.00 57 1005.7
20260505012001 70 137 0.9 2.6 0.00 0.00 0.00 57 1005.7
20260505011501 70 137 0.9 3.5 0.00 0.00 0.00 56 1005.6
20260505011001 70 137 0.9 4.3 0.00 0.00 0.00 56 1005.6
20260505010523 71 140 0.9 4.3 0.00 0.00 0.00 56 1005.6
20260505005957 71 137 0.9 4.3 0.00 0.00 0.00 56 1005.6
20260505005455 71 146 1.7 4.3 0.00 0.00 0.00 55 1005.6
20260505005016 71 146 0.9 4.3 0.00 0.00 0.00 55 1005.6
20260505004455 71 148 0.9 3.5 0.00 0.00 0.00 55 1005.6
20260505003955 71 149 0.9 3.5 0.00 0.00 0.00 54 1005.7
20260505003455 72 134 0.9 2.6 0.00 0.00 0.00 53 1005.6
20260505002956 72 139 1.7 4.3 0.00 0.00 0.00 54 1005.6
20260505002456 72 147 1.7 6.1 0.00 0.00 0.00 52 1005.7
20260505001956 72 146 1.7 6.1 0.00 0.00 0.00 52 1005.7
20260505001455 72 152 1.7 4.3 0.00 0.00 0.00 51 1005.7
20260505000955 72 153 1.7 5.2 0.00 0.00 0.00 51 1005.7
20260505000455 73 155 1.7 5.2 0.00 0.00 0.00 51 1005.8
20260504235955 73 168 1.7 4.3 0.00 0.00 0.00 51 1005.8
20260504235455 73 181 1.7 3.5 0.00 0.00 0.00 51 1005.9
20260504234955 73 195 1.7 6.1 0.00 0.00 0.00 50 1005.9
20260504234455 73 187 1.7 7.8 0.00 0.00 0.00 51 1006.1
20260504233955 73 182 2.6 7.8 0.00 0.00 0.00 50 1006.2
20260504233455 74 169 2.6 6.1 0.00 0.00 0.00 49 1006.3
20260504232955 74 164 2.6 4.3 0.00 0.00 0.00 48 1006.3
20260504232455 74 186 1.7 7.0 0.00 0.00 0.00 48 1006.4
20260504231955 75 190 1.7 7.0 0.00 0.00 0.00 46 1006.5
20260504231455 75 201 1.7 8.7 0.00 0.00 0.00 45 1006.4
20260504230956 75 205 3.5 10.4 0.00 0.00 0.00 45 1006.5
20260504230455 75 198 4.3 10.4 0.00 0.00 0.00 44 1006.5
20260504225955 76 183 4.3 10.4 0.00 0.00 0.00 43 1006.5
20260504225456 76 193 3.5 12.2 0.00 0.00 0.00 44 1006.6
20260504225016 76 196 3.5 12.2 0.00 0.00 0.00 44 1006.7
20260504224455 76 184 2.6 9.6 0.00 0.00 0.00 45 1006.7
20260504223955 76 208 3.5 9.6 0.00 0.00 0.00 45 1006.6
20260504223456 76 201 3.5 9.6 0.00 0.00 0.00 46 1006.7
20260504222955 75 200 2.6 8.7 0.00 0.00 0.00 47 1006.7
20260504222455 75 188 1.7 8.7 0.00 0.00 0.00 50 1006.7
20260504221955 75 160 2.6 7.8 0.00 0.00 0.00 51 1006.7
20260504221455 75 153 2.6 7.8 0.00 0.00 0.00 51 1006.7
20260504220955 75 143 2.6 6.1 0.00 0.00 0.00 51 1006.8
20260504220516 75 142 1.7 5.2 0.00 0.00 0.00 50 1006.6
20260504215955 75 141 1.7 6.1 0.00 0.00 0.00 51 1006.6
20260504215517 74 152 1.7 6.1 0.00 0.00 0.00 51 1006.7
20260504214956 75 189 0.9 2.6 0.00 0.00 0.00 50 1006.9
20260504214455 75 230 0.9 7.0 0.00 0.00 0.00 50 1007.0
20260504213955 75 241 1.7 7.0 0.00 0.00 0.00 48 1007.2
20260504213455 76 221 0.9 4.3 0.00 0.00 0.00 49 1007.3
20260504212955 76 225 1.7 6.1 0.00 0.00 0.00 46 1007.2
20260504212456 77 242 2.6 9.6 0.00 0.00 0.00 47 1007.2
20260504211955 77 249 1.7 9.6 0.00 0.00 0.00 47 1007.4
20260504211455 77 235 1.7 6.1 0.00 0.00 0.00 46 1007.4
20260504210955 77 246 1.7 5.2 0.00 0.00 0.00 48 1007.6
20260504210517 76 245 1.7 7.8 0.00 0.00 0.00 47 1007.6
20260504205956 76 236 2.6 7.8 0.00 0.00 0.00 48 1007.7
20260504205455 76 245 1.7 6.1 0.00 0.00 0.00 46 1007.7
20260504204955 76 211 2.6 7.8 0.00 0.00 0.00 48 1007.7
20260504204455 75 198 2.6 7.8 0.00 0.00 0.00 51 1007.8
20260504203955 75 159 2.6 7.8 0.00 0.00 0.00 49 1007.8
20260504203456 76 163 2.6 7.8 0.00 0.00 0.00 48 1007.8
20260504202955 76 210 2.6 7.8 0.00 0.00 0.00 50 1008.0
20260504202516 75 221 2.6 8.7 0.00 0.00 0.00 52 1008.1
20260504201955 74 224 2.6 8.7 0.00 0.00 0.00 53 1008.1
20260504201455 74 225 2.6 8.7 0.00 0.00 0.00 52 1008.2
20260504200955 74 226 2.6 8.7 0.00 0.00 0.00 52 1008.2
20260504200455 75 208 1.7 8.7 0.00 0.00 0.00 53 1008.4
20260504195955 75 180 2.6 7.8 0.00 0.00 0.00 51 1008.5
20260504195456 75 197 2.6 7.8 0.00 0.00 0.00 52 1008.5
20260504194955 74 196 1.7 5.2 0.00 0.00 0.00 52 1008.6
20260504194455 74 182 2.6 9.6 0.00 0.00 0.00 52 1008.7
20260504193955 74 174 1.7 9.6 0.00 0.00 0.00 53 1008.8
20260504193455 73 173 1.7 7.0 0.00 0.00 0.00 53 1008.7
20260504192955 73 191 1.7 7.0 0.00 0.00 0.00 53 1008.9
20260504192516 73 207 1.7 5.2 0.00 0.00 0.00 57 1009.0
20260504192016 72 229 1.7 7.0 0.00 0.00 0.00 57 1009.2
20260504191455 71 220 1.7 7.8 0.00 0.00 0.00 58 1009.2
20260504191016 71 225 1.7 7.8 0.00 0.00 0.00 56 1009.3
20260504190516 71 232 1.7 7.0 0.00 0.00 0.00 59 1009.2
20260504185955 71 241 1.7 6.1 0.00 0.00 0.00 61 1009.5
20260504185455 70 240 2.6 7.0 0.00 0.00 0.00 61 1009.5
20260504185016 70 223 1.7 7.0 0.00 0.00 0.00 63 1009.5
20260504184516 69 223 0.9 3.5 0.00 0.00 0.00 63 1009.6
20260504183955 69 212 1.7 3.5 0.00 0.00 0.00 62 1009.7
20260504183455 69 189 1.7 7.0 0.00 0.00 0.00 62 1009.7
20260504182955 69 213 1.7 7.0 0.00 0.00 0.00 61 1009.6
20260504182455 69 201 2.6 10.4 0.00 0.00 0.00 61 1009.6
20260504182016 69 185 2.6 10.4 0.00 0.00 0.00 60 1009.6
20260504181456 69 174 2.6 7.8 0.00 0.00 0.00 61 1009.6
20260504180955 69 166 2.6 9.6 0.00 0.00 0.00 60 1009.5
20260504180455 69 186 2.6 9.6 0.00 0.00 0.00 60 1009.3
20260504175955 69 189 2.6 8.7 0.00 0.00 0.00 60 1009.4
20260504175455 70 177 2.6 7.8 0.00 0.00 0.00 58 1009.3
20260504174955 70 166 2.6 7.8 0.00 0.00 0.00 60 1009.1
20260504174455 70 185 3.5 7.8 0.00 0.00 0.00 58 1009.0
20260504174016 70 202 2.6 7.8 0.00 0.00 0.00 57 1008.9
20260504173455 71 171 3.5 8.7 0.00 0.00 0.00 59 1008.9
20260504172955 71 160 3.5 9.6 0.00 0.00 0.00 58 1008.9
20260504172456 71 173 2.6 9.6 0.00 0.00 0.00 58 1009.0
20260504171956 70 196 2.6 8.7 0.00 0.00 0.00 60 1009.0
20260504171455 69 178 2.6 8.7 0.00 0.00 0.00 60 1009.2
20260504170955 69 193 2.6 8.7 0.00 0.00 0.00 59 1009.1
20260504170456 69 196 2.6 7.8 0.00 0.00 0.00 59 1009.3
20260504150956 64 154 2.6 7.8 0.00 0.00 0.00 64 1010.0
20260504150455 64 163 2.6 7.0 0.00 0.00 0.00 63 1009.9
20260504140956 61 196 2.6 7.8 0.00 0.00 0.00 67 1010.0
20260504140517 61 201 2.6 7.0 0.00 0.00 0.00 67 1009.9
20260504130516 57 168 1.7 9.6 0.00 0.00 0.00 70 1010.5